LiveATC.Net - Listen to live air traffic control over the Internet!


ICAO: KOXC  IATA: OXC   Airport: Waterbury-Oxford Airport
City: Oxford   State/Province: Connecticut
Country: United States   Continent: North America
KOXC METAR Weather: KOXC 232351Z 14012G18KT 4SM BR OVC006 22/22 A2999 RMK AO2 RAE14 CIG 004V010 SLP162 P0000 60018 T02220217 10250 20217 58002
KOXC Flight Activity (FlightAware)
KOXC Airport Info   (iFlightPlanner)
KOXC VFR Sectional Chart   (iFlightPlanner) 
KOXC IFR Low Chart   (iFlightPlanner) 

KOXC Ground/Tower
Feed Status: UP   Listeners: 0
Listen in your browser - HTML5 player (in browser, HTML5)
Click here to listen with your own player (launches your MP3 player)
Archive Access: KOXC Ground/Tower
FacilityFrequency
Oxford Ground121.650
Oxford Tower118.475

NOTICE

Unauthorized use prohibited. See LiveATC.net Terms of Service


Airport/ARTCC Code
Frequency Search
(e.g., 124.400, 128.75)
Site-wide search
 


Browse Feeds
Top 50 Feeds
HF Oceanic Feeds
Coverage Map
Bad Weather Areas

LiveATC FAQ
Offer LiveATC feed
Contact LiveATC.net
Press Inquiries

LiveATC on iPhone
LiveATC on Android

Windows Phone
Windows 8/10

LiveATC Mobile
(Mobile browser)

ATC Audio Archives
Interesting Recordings

LiveATC Forums


Home Page
About LiveATC.net
Make a Donation
Terms of Use
Privacy Policy

Canadian Air Freqs

AIRMETs/SIGMETs

FAA Airport Status
NAS Status
Arrival Demand


Server Software By:
Icecast.org
Liquidsoap